Вернуться в каталог

GARAI-B

АктивенНаукаSSO
NORAD 68463·PAYLOAD·🇸🇪 Sweden

Запущен Mar 30, 2026 с Vandenberg Space Force Base

Loading…

Ближайшие Пролёты (ближайшие 24 часа)

TLE

СвежийSource: Space-Track

Эпоха: Sep 13, 2026, 21:29 UTC

1 68463U 26067AZ  26256.89523156  .00003552  00000-0  19674-3 0  9993
2 68463  97.4627 213.8499 0004787 110.5358 249.6389 15.14443835 25386

Отслеживайте GARAI-B в реальном времени с AllMySat

Download on the App Store